sat.trackr.live / text

‹ back to catalog

STARLINK-36616

NORAD 67672 · 2026-022AA

PAYLOAD ACTIVE UNKNOWN

§ Identity

Operator
Country
US
Launch date
2026-02-02
Launch site
AFWTR
Launch vehicle
Mass (kg)
RCS (m²)

Purposes: comms

External: N2YO · Heavens-Above · Gunter

§ Orbital elements

Epoch: 2026-05-25T02:01:45.920928Z

Period
93.91 min
Inclination
97.2848°
Eccentricity
0.0001645
Mean motion
15.33452164 rev/d
Perigee alt
464.4 km
Apogee alt
466.6 km
Semi-major
6,843.7 km
B*
4.1388e-4
RAAN
178.3926°
Arg perigee
93.5707°
Mean anomaly
266.5724°
Rev number
1,728

§ Raw data

STARLINK-366161 67672U 26022AA  26145.08455927  .00013313  00000+0  41388-3 0  99952 67672  97.2848 178.3926 0001645  93.5707 266.5724 15.33452164 17285

JSON: /api/v1/satellites/67672 · /tle

For live sub-satellite position, see the globe view (requires WebGL).

§ Visibility from observer

Set your observer location to see the next 7 days of passes ≥ 10°. The values pass through the URL so the page stays shareable.

No JS? Fill the form by hand. The geolocation button needs JavaScript.